JAY2K EYVI-EDDK

Flight info

Callsign JAY2K
Flight time 2h 11m
Altitude 34000
Route UPASI DCT TUNGA DCT SUWGI DCT ALUKA DCT POVEL Q201 PODER Z189 RUNER T858 KOPAG KOPAG1B
Aircraft A320/M-SDE3FGHIRWY/LB1

Departure

Time 2026-05-04 21:09
Airport Vilnius International Airport (EYVI)

Arrival

Time 2026-05-04 23:20
Airport Cologne Bonn Airport (EDDK)
Time Latitude Longitude Altitude Speed Heading
2026-05-04 20:23 54.64234 25.28202 638 ft 0 kts 359°
2026-05-04 20:57 54.64213 25.28203 639 ft 4 kts 359°
2026-05-04 20:57 54.64186 25.28203 640 ft 4 kts 359°
2026-05-04 20:58 54.64173 25.28203 638 ft 1 kts 359°
2026-05-04 20:58 54.64172 25.28203 638 ft 0 kts 359°
2026-05-04 21:01 54.64175 25.28209 641 ft 1 kts 38°
2026-05-04 21:01 54.64175 25.28216 640 ft 0 kts 73°
2026-05-04 21:01 54.64177 25.28246 638 ft 4 kts 83°
2026-05-04 21:02 54.64179 25.28276 639 ft 1 kts 81°
2026-05-04 21:02 54.64180 25.28284 639 ft 5 kts 79°
2026-05-04 21:02 54.64210 25.28464 644 ft 14 kts 87°
2026-05-04 21:02 54.64214 25.28601 647 ft 9 kts 86°
2026-05-04 21:03 54.64207 25.28682 650 ft 5 kts 126°
2026-05-04 21:03 54.64188 25.28697 648 ft 5 kts 169°
2026-05-04 21:03 54.64151 25.28699 647 ft 6 kts 179°
2026-05-04 21:03 54.64104 25.28701 646 ft 7 kts 178°
2026-05-04 21:04 54.64050 25.28703 645 ft 8 kts 181°
2026-05-04 21:04 54.63989 25.28668 642 ft 11 kts 204°
2026-05-04 21:04 54.63897 25.28600 640 ft 19 kts 202°
2026-05-04 21:04 54.63746 25.28490 625 ft 27 kts 204°
2026-05-04 21:05 54.63553 25.28350 617 ft 33 kts 203°
2026-05-04 21:05 54.63331 25.28198 620 ft 35 kts 203°
2026-05-04 21:05 54.63104 25.28044 611 ft 36 kts 199°
2026-05-04 21:05 54.62869 25.27880 603 ft 37 kts 201°
2026-05-04 21:06 54.62639 25.27717 602 ft 18 kts 204°
2026-05-04 21:06 54.62524 25.27658 611 ft 16 kts 173°
2026-05-04 21:06 54.62482 25.27704 609 ft 0 kts 143°
2026-05-04 21:07 54.62479 25.27707 610 ft 4 kts 142°
2026-05-04 21:07 54.62425 25.27787 615 ft 13 kts 136°
2026-05-04 21:07 54.62407 25.27881 606 ft 8 kts 32°
2026-05-04 21:07 54.62453 25.27908 605 ft 0 kts 20°
2026-05-04 21:08 54.62454 25.27908 605 ft 0 kts 20°
2026-05-04 21:08 54.62502 25.27940 604 ft 26 kts 21°
2026-05-04 21:08 54.62936 25.28228 603 ft 103 kts 21°
2026-05-04 21:08 54.63794 25.28791 641 ft 157 kts 16°
2026-05-04 21:09 54.64877 25.29441 1156 ft 169 kts 15°
2026-05-04 21:09 54.65993 25.30132 1956 ft 172 kts 17°
2026-05-04 21:09 54.67155 25.30958 2443 ft 191 kts 18°
2026-05-04 21:09 54.68466 25.31903 2845 ft 217 kts 18°
2026-05-04 21:10 54.69937 25.32957 3359 ft 240 kts 18°
2026-05-04 21:10 54.71516 25.34091 4172 ft 251 kts 17°
2026-05-04 21:10 54.73159 25.35272 5042 ft 259 kts 17°
2026-05-04 21:10 54.74851 25.36477 5942 ft 267 kts 17°
2026-05-04 21:11 54.76594 25.37709 6800 ft 274 kts 17°
2026-05-04 21:11 54.78413 25.38590 7715 ft 269 kts 354°
2026-05-04 21:11 54.80175 25.37967 8681 ft 254 kts 326°
2026-05-04 21:11 54.81526 25.36008 9333 ft 257 kts 298°
2026-05-04 21:12 54.82273 25.33182 10125 ft 262 kts 287°
2026-05-04 21:12 54.82952 25.30153 10522 ft 285 kts 288°
2026-05-04 21:12 54.83598 25.26838 11185 ft 293 kts 277°
2026-05-04 21:12 54.83442 25.23330 11996 ft 297 kts 251°
2026-05-04 21:13 54.82295 25.20317 12842 ft 307 kts 227°
2026-05-04 21:13 54.80754 25.17725 13718 ft 310 kts 231°
2026-05-04 21:13 54.79376 25.14840 14483 ft 312 kts 235°
2026-05-04 21:13 54.78079 25.11802 15248 ft 315 kts 236°
2026-05-04 21:14 54.76786 25.08713 16008 ft 319 kts 236°
2026-05-04 21:14 54.75457 25.05611 16751 ft 323 kts 235°
2026-05-04 21:14 54.74081 25.02510 17506 ft 327 kts 234°
2026-05-04 21:14 54.72665 24.99404 18236 ft 331 kts 233°
2026-05-04 21:15 54.71216 24.96281 18875 ft 335 kts 233°
2026-05-04 21:15 54.69737 24.93136 19525 ft 338 kts 233°
2026-05-04 21:15 54.68246 24.89968 20175 ft 341 kts 233°
2026-05-04 21:15 54.66744 24.86779 20833 ft 344 kts 232°
2026-05-04 21:16 54.65231 24.83567 21466 ft 347 kts 233°
2026-05-04 21:16 54.63700 24.80319 22099 ft 350 kts 232°
2026-05-04 21:16 54.62179 24.77091 22720 ft 353 kts 232°
2026-05-04 21:16 54.60604 24.73751 23343 ft 356 kts 232°
2026-05-04 21:17 54.59029 24.70418 23892 ft 360 kts 232°
2026-05-04 21:17 54.57468 24.67110 24395 ft 362 kts 232°
2026-05-04 21:17 54.55871 24.63729 24914 ft 365 kts 232°
2026-05-04 21:17 54.54258 24.60329 25413 ft 368 kts 232°
2026-05-04 21:18 54.52633 24.56912 25922 ft 370 kts 233°
2026-05-04 21:18 54.50992 24.53464 26411 ft 373 kts 233°
2026-05-04 21:18 54.49340 24.49990 26891 ft 376 kts 233°
2026-05-04 21:18 54.47676 24.46500 27373 ft 379 kts 233°
2026-05-04 21:19 54.45996 24.42993 27842 ft 381 kts 233°
2026-05-04 21:19 54.44301 24.39457 28307 ft 384 kts 233°
2026-05-04 21:19 54.42594 24.35892 28771 ft 387 kts 233°
2026-05-04 21:19 54.40882 24.32320 29223 ft 389 kts 233°
2026-05-04 21:20 54.39298 24.28554 29652 ft 390 kts 242°
2026-05-04 21:20 54.38118 24.24366 30081 ft 390 kts 251°
2026-05-04 21:20 54.37305 24.19920 30449 ft 392 kts 254°
2026-05-04 21:20 54.36521 24.15425 30822 ft 394 kts 254°
2026-05-04 21:21 54.35738 24.10977 31178 ft 396 kts 254°
2026-05-04 21:21 54.34936 24.06448 31530 ft 398 kts 254°
2026-05-04 21:21 54.34127 24.01903 31968 ft 397 kts 254°
2026-05-04 21:21 54.33317 23.97380 32490 ft 395 kts 254°
2026-05-04 21:22 54.32512 23.92886 32999 ft 394 kts 255°
2026-05-04 21:22 54.31709 23.88413 33494 ft 392 kts 255°
2026-05-04 21:22 54.30911 23.83954 33874 ft 391 kts 255°
2026-05-04 21:22 54.30119 23.79518 33938 ft 383 kts 255°
2026-05-04 21:23 54.29348 23.75223 33946 ft 372 kts 255°
2026-05-04 21:23 54.28589 23.71022 33942 ft 368 kts 255°
2026-05-04 21:23 54.27079 23.62676 33943 ft 366 kts 255°
2026-05-04 21:24 54.25566 23.54356 33946 ft 366 kts 255°
2026-05-04 21:24 54.24043 23.46056 33949 ft 365 kts 255°
2026-05-04 21:25 54.22427 23.37861 33949 ft 367 kts 248°
2026-05-04 21:25 54.19990 23.30166 33948 ft 368 kts 244°
2026-05-04 21:26 54.17522 23.22498 33946 ft 368 kts 244°
2026-05-04 21:26 54.15049 23.14848 33949 ft 368 kts 244°
2026-05-04 21:27 54.12571 23.07200 33943 ft 368 kts 244°
2026-05-04 21:27 54.10089 22.99573 33947 ft 368 kts 244°
2026-05-04 21:28 54.07647 22.91956 33938 ft 367 kts 249°
2026-05-04 21:28 54.06348 22.83658 33949 ft 363 kts 262°
2026-05-04 21:29 54.05525 22.75179 33945 ft 363 kts 261°
2026-05-04 21:29 54.04683 22.66698 33946 ft 364 kts 261°
2026-05-04 21:30 54.03835 22.58213 33948 ft 364 kts 261°
2026-05-04 21:30 54.02982 22.49720 33948 ft 364 kts 261°
2026-05-04 21:31 54.01698 22.36986 33948 ft 364 kts 261°
2026-05-04 21:32 54.00827 22.28507 33944 ft 364 kts 261°
2026-05-04 21:32 53.99951 22.20030 33946 ft 364 kts 261°
2026-05-04 21:33 53.99076 22.11565 33947 ft 364 kts 261°
2026-05-04 21:33 53.98187 22.03100 33955 ft 364 kts 261°
2026-05-04 21:34 53.97299 21.94646 33957 ft 364 kts 261°
2026-05-04 21:34 53.96399 21.86187 33952 ft 364 kts 261°
2026-05-04 21:35 53.95491 21.77742 33949 ft 364 kts 261°
2026-05-04 21:35 53.94590 21.69345 33959 ft 363 kts 261°
2026-05-04 21:36 53.93677 21.60908 33948 ft 364 kts 261°
2026-05-04 21:36 53.92758 21.52464 33955 ft 364 kts 260°
2026-05-04 21:37 53.91821 21.44011 33953 ft 364 kts 260°
2026-05-04 21:37 53.90896 21.35578 33952 ft 364 kts 261°
2026-05-04 21:38 53.89966 21.27148 33961 ft 364 kts 260°
2026-05-04 21:38 53.89019 21.18728 33957 ft 363 kts 260°
2026-05-04 21:39 53.88065 21.10315 33962 ft 363 kts 260°
2026-05-04 21:39 53.87116 21.01954 33959 ft 363 kts 260°
2026-05-04 21:40 53.86161 20.93545 33953 ft 363 kts 260°
2026-05-04 21:40 53.85198 20.85136 33961 ft 363 kts 260°
2026-05-04 21:41 53.84215 20.76744 33950 ft 363 kts 259°
2026-05-04 21:41 53.83229 20.68358 33962 ft 363 kts 259°
2026-05-04 21:42 53.82249 20.59964 33959 ft 363 kts 260°
2026-05-04 21:42 53.81270 20.51589 33953 ft 363 kts 259°
2026-05-04 21:43 53.80272 20.43209 33949 ft 363 kts 259°
2026-05-04 21:43 53.79271 20.34876 33953 ft 363 kts 259°
2026-05-04 21:44 53.78264 20.26502 33954 ft 363 kts 259°
2026-05-04 21:44 53.77253 20.18128 33952 ft 363 kts 259°
2026-05-04 21:45 53.76239 20.09753 33950 ft 364 kts 259°
2026-05-04 21:45 53.75217 20.01373 33954 ft 364 kts 259°
2026-05-04 21:46 53.74357 19.94415 33957 ft 364 kts 259°
2026-05-04 21:46 53.73316 19.86039 33952 ft 365 kts 259°
2026-05-04 21:47 53.72266 19.77664 33944 ft 365 kts 259°
2026-05-04 21:47 53.71212 19.69278 33948 ft 365 kts 259°
2026-05-04 21:48 53.70155 19.60896 33954 ft 365 kts 259°
2026-05-04 21:48 53.69087 19.52500 33954 ft 366 kts 259°
2026-05-04 21:49 53.68015 19.44107 33957 ft 366 kts 259°
2026-05-04 21:49 53.66944 19.35756 33958 ft 366 kts 259°
2026-05-04 21:50 53.65857 19.27368 33953 ft 366 kts 259°
2026-05-04 21:50 53.64770 19.18977 33955 ft 366 kts 259°
2026-05-04 21:51 53.63679 19.10597 33953 ft 366 kts 258°
2026-05-04 21:51 53.62572 19.02224 33958 ft 366 kts 258°
2026-05-04 21:52 53.61461 18.93838 33949 ft 366 kts 258°
2026-05-04 21:52 53.60344 18.85460 33953 ft 367 kts 258°
2026-05-04 21:53 53.59217 18.77084 33963 ft 367 kts 258°
2026-05-04 21:53 53.58092 18.68715 33964 ft 367 kts 258°
2026-05-04 21:54 53.56966 18.60383 33964 ft 367 kts 258°
2026-05-04 21:54 53.55835 18.52017 33957 ft 367 kts 258°
2026-05-04 21:55 53.54692 18.43648 33960 ft 367 kts 258°
2026-05-04 21:55 53.53534 18.35285 33953 ft 367 kts 258°
2026-05-04 21:56 53.52381 18.26980 33956 ft 367 kts 258°
2026-05-04 21:56 53.51224 18.18638 33962 ft 367 kts 257°
2026-05-04 21:57 53.50058 18.10288 33962 ft 367 kts 257°
2026-05-04 21:57 53.48883 18.01949 33962 ft 367 kts 257°
2026-05-04 21:58 53.47705 17.93604 33960 ft 367 kts 257°
2026-05-04 21:58 53.46508 17.85272 33968 ft 367 kts 257°
2026-05-04 21:59 53.45306 17.76944 33968 ft 367 kts 257°
2026-05-04 21:59 53.44110 17.68626 33973 ft 367 kts 257°
2026-05-04 22:00 53.42909 17.60290 33969 ft 367 kts 257°
2026-05-04 22:00 53.41710 17.52034 33973 ft 367 kts 257°
2026-05-04 22:01 53.40492 17.43737 33964 ft 367 kts 257°
2026-05-04 22:01 53.39271 17.35441 33968 ft 366 kts 257°
2026-05-04 22:02 53.38048 17.27159 33973 ft 366 kts 257°
2026-05-04 22:02 53.36816 17.18887 33971 ft 366 kts 257°
2026-05-04 22:03 53.35584 17.10622 33964 ft 366 kts 257°
2026-05-04 22:03 53.34345 17.02359 33957 ft 366 kts 256°
2026-05-04 22:04 53.33100 16.94090 33986 ft 367 kts 256°
2026-05-04 22:04 53.31842 16.85811 33989 ft 367 kts 256°
2026-05-04 22:05 53.30574 16.77532 33984 ft 368 kts 256°
2026-05-04 22:05 53.29308 16.69301 33982 ft 368 kts 256°
2026-05-04 22:06 53.28036 16.61014 33983 ft 368 kts 256°
2026-05-04 22:06 53.26758 16.52727 33978 ft 368 kts 256°
2026-05-04 22:07 53.25475 16.44436 33972 ft 368 kts 256°
2026-05-04 22:07 53.24183 16.36160 33970 ft 368 kts 256°
2026-05-04 22:08 53.22879 16.27896 33968 ft 368 kts 256°
2026-05-04 22:08 53.21568 16.19626 33968 ft 369 kts 256°
2026-05-04 22:09 53.20257 16.11359 33968 ft 368 kts 256°
2026-05-04 22:09 53.18937 16.03101 33969 ft 369 kts 256°
2026-05-04 22:10 53.17614 15.94878 33970 ft 369 kts 255°
2026-05-04 22:10 53.16282 15.86610 33964 ft 369 kts 255°
2026-05-04 22:11 53.14944 15.78327 33969 ft 370 kts 255°
2026-05-04 22:11 53.13602 15.70057 33966 ft 370 kts 255°
2026-05-04 22:12 53.12248 15.61793 33966 ft 370 kts 255°
2026-05-04 22:12 53.10891 15.53528 33966 ft 370 kts 255°
2026-05-04 22:13 53.09528 15.45260 33968 ft 370 kts 255°
2026-05-04 22:13 53.08161 15.37003 33962 ft 370 kts 255°
2026-05-04 22:14 53.06786 15.28764 33967 ft 370 kts 255°
2026-05-04 22:14 53.05405 15.20533 33965 ft 370 kts 254°
2026-05-04 22:15 53.04018 15.12307 33967 ft 370 kts 254°
2026-05-04 22:15 53.02629 15.04082 33965 ft 370 kts 254°
2026-05-04 22:16 53.01243 14.95919 33968 ft 370 kts 254°
2026-05-04 22:16 52.99834 14.87699 33966 ft 370 kts 254°
2026-05-04 22:17 52.98420 14.79488 33965 ft 370 kts 254°
2026-05-04 22:17 52.97010 14.71277 33964 ft 370 kts 254°
2026-05-04 22:18 52.95596 14.63075 33966 ft 370 kts 254°
2026-05-04 22:18 52.94170 14.54868 33964 ft 370 kts 253°
2026-05-04 22:19 52.92735 14.46667 33960 ft 370 kts 253°
2026-05-04 22:19 52.91289 14.38473 33963 ft 370 kts 253°
2026-05-04 22:20 52.89840 14.30283 33965 ft 370 kts 253°
2026-05-04 22:20 52.88255 14.22175 33964 ft 370 kts 251°
2026-05-04 22:21 52.86580 14.14177 33965 ft 370 kts 251°
2026-05-04 22:21 52.84901 14.06134 33962 ft 370 kts 251°
2026-05-04 22:22 52.83231 13.98081 33963 ft 370 kts 251°
2026-05-04 22:22 52.81568 13.90030 33960 ft 370 kts 251°
2026-05-04 22:23 52.79896 13.81978 33958 ft 370 kts 251°
2026-05-04 22:23 52.78222 13.73941 33957 ft 370 kts 250°
2026-05-04 22:24 52.76540 13.65911 33960 ft 370 kts 250°
2026-05-04 22:24 52.74850 13.57874 33957 ft 370 kts 250°
2026-05-04 22:25 52.73157 13.49852 33956 ft 370 kts 250°
2026-05-04 22:25 52.71463 13.41845 33954 ft 370 kts 250°
2026-05-04 22:26 52.69758 13.33842 33955 ft 370 kts 250°
2026-05-04 22:26 52.68046 13.25844 33952 ft 370 kts 250°
2026-05-04 22:27 52.66334 13.17854 33953 ft 370 kts 250°
2026-05-04 22:27 52.64614 13.09861 33949 ft 370 kts 249°
2026-05-04 22:28 52.62882 13.01873 33946 ft 370 kts 249°
2026-05-04 22:28 52.61153 12.93905 33942 ft 370 kts 249°
2026-05-04 22:29 52.59424 12.85979 33941 ft 370 kts 249°
2026-05-04 22:29 52.57970 12.79312 33937 ft 370 kts 249°
2026-05-04 22:30 52.56231 12.71361 33940 ft 370 kts 249°
2026-05-04 22:30 52.54478 12.63414 33946 ft 370 kts 249°
2026-05-04 22:31 52.52729 12.55524 33945 ft 370 kts 249°
2026-05-04 22:31 52.50967 12.47598 33944 ft 369 kts 249°
2026-05-04 22:32 52.49203 12.39676 33945 ft 369 kts 248°
2026-05-04 22:32 52.47433 12.31762 33945 ft 370 kts 248°
2026-05-04 22:33 52.45651 12.23843 33947 ft 370 kts 248°
2026-05-04 22:33 52.43859 12.15914 33950 ft 370 kts 248°
2026-05-04 22:34 52.42070 12.07985 33954 ft 370 kts 248°
2026-05-04 22:34 52.40276 12.00072 33955 ft 371 kts 248°
2026-05-04 22:35 52.38483 11.92219 33961 ft 371 kts 248°
2026-05-04 22:35 52.36661 11.84263 33962 ft 371 kts 248°
2026-05-04 22:36 52.34859 11.76400 33963 ft 371 kts 248°
2026-05-04 22:36 52.33042 11.68509 33963 ft 371 kts 247°
2026-05-04 22:37 52.31217 11.60613 33968 ft 371 kts 247°
2026-05-04 22:37 52.29384 11.52740 33970 ft 371 kts 247°
2026-05-04 22:38 52.27549 11.44870 33968 ft 371 kts 247°
2026-05-04 22:38 52.25709 11.37011 33969 ft 370 kts 247°
2026-05-04 22:39 52.23873 11.29159 33968 ft 370 kts 247°
2026-05-04 22:39 52.22028 11.21307 33970 ft 370 kts 246°
2026-05-04 22:40 52.20171 11.13484 33968 ft 370 kts 246°
2026-05-04 22:40 52.18313 11.05668 33971 ft 370 kts 246°
2026-05-04 22:41 52.16452 10.97852 33968 ft 370 kts 246°
2026-05-04 22:41 52.14581 10.90057 33971 ft 369 kts 246°
2026-05-04 22:42 52.12705 10.82276 33971 ft 369 kts 246°
2026-05-04 22:42 52.10900 10.74499 33974 ft 369 kts 247°
2026-05-04 22:43 52.09122 10.66662 33977 ft 369 kts 246°
2026-05-04 22:43 52.07329 10.58857 33978 ft 368 kts 246°
2026-05-04 22:44 52.05515 10.51083 33981 ft 368 kts 246°
2026-05-04 22:44 52.03705 10.43329 33979 ft 367 kts 246°
2026-05-04 22:45 52.01898 10.35586 33983 ft 366 kts 246°
2026-05-04 22:45 51.99173 10.24008 33978 ft 366 kts 246°
2026-05-04 22:46 51.97355 10.16309 33979 ft 366 kts 246°
2026-05-04 22:46 51.95536 10.08610 33975 ft 365 kts 245°
2026-05-04 22:47 51.93705 10.00924 33970 ft 365 kts 245°
2026-05-04 22:47 51.91875 9.93246 33974 ft 366 kts 245°
2026-05-04 22:48 51.90038 9.85569 33973 ft 366 kts 245°
2026-05-04 22:48 51.88182 9.77903 33975 ft 366 kts 245°
2026-05-04 22:49 51.86332 9.70244 33968 ft 366 kts 245°
2026-05-04 22:49 51.85403 9.66409 33752 ft 367 kts 245°
2026-05-04 22:49 51.84472 9.62564 33124 ft 367 kts 245°
2026-05-04 22:50 51.83556 9.58781 32594 ft 364 kts 245°
2026-05-04 22:50 51.82637 9.54985 32090 ft 361 kts 245°
2026-05-04 22:50 51.81725 9.51216 31594 ft 358 kts 245°
2026-05-04 22:50 51.80820 9.47493 31125 ft 355 kts 245°
2026-05-04 22:51 51.79821 9.43889 30640 ft 348 kts 235°
2026-05-04 22:51 51.78394 9.40769 30163 ft 343 kts 230°
2026-05-04 22:51 51.76925 9.37743 29617 ft 341 kts 229°
2026-05-04 22:51 51.75464 9.34748 29048 ft 339 kts 229°
2026-05-04 22:52 51.74008 9.31772 28513 ft 337 kts 229°
2026-05-04 22:52 51.72560 9.28821 27970 ft 335 kts 230°
2026-05-04 22:52 51.71117 9.25881 27457 ft 333 kts 230°
2026-05-04 22:52 51.69680 9.22956 26946 ft 331 kts 230°
2026-05-04 22:53 51.68258 9.20054 26441 ft 329 kts 230°
2026-05-04 22:53 51.66842 9.17170 25956 ft 327 kts 230°
2026-05-04 22:53 51.65429 9.14300 25477 ft 326 kts 230°
2026-05-04 22:53 51.64026 9.11450 25010 ft 324 kts 230°
2026-05-04 22:54 51.62629 9.08622 24541 ft 322 kts 230°
2026-05-04 22:54 51.61234 9.05796 24092 ft 321 kts 230°
2026-05-04 22:54 51.59846 9.02990 23647 ft 319 kts 231°
2026-05-04 22:54 51.58464 9.00205 23154 ft 318 kts 231°
2026-05-04 22:55 51.57088 8.97437 22653 ft 316 kts 231°
2026-05-04 22:55 51.55720 8.94685 22206 ft 314 kts 231°
2026-05-04 22:55 51.54363 8.91956 21765 ft 312 kts 231°
2026-05-04 22:55 51.53013 8.89243 21331 ft 310 kts 231°
2026-05-04 22:56 51.51674 8.86543 20895 ft 308 kts 231°
2026-05-04 22:56 51.50341 8.83862 20473 ft 306 kts 231°
2026-05-04 22:56 51.49015 8.81201 20063 ft 305 kts 231°
2026-05-04 22:56 51.47690 8.78557 19661 ft 303 kts 231°
2026-05-04 22:57 51.46387 8.75958 19278 ft 302 kts 231°
2026-05-04 22:57 51.45074 8.73339 18895 ft 300 kts 231°
2026-05-04 22:57 51.43766 8.70734 18509 ft 299 kts 231°
2026-05-04 22:57 51.42463 8.68140 18134 ft 298 kts 231°
2026-05-04 22:58 51.41168 8.65561 17709 ft 297 kts 231°
2026-05-04 22:58 51.39879 8.62987 17318 ft 295 kts 231°
2026-05-04 22:58 51.38596 8.60430 16943 ft 294 kts 231°
2026-05-04 22:58 51.37318 8.57885 16578 ft 292 kts 231°
2026-05-04 22:59 51.36049 8.55361 16224 ft 291 kts 231°
2026-05-04 22:59 51.34784 8.52845 15879 ft 289 kts 231°
2026-05-04 22:59 51.33522 8.50350 15538 ft 288 kts 231°
2026-05-04 22:59 51.32260 8.47866 15205 ft 287 kts 231°
2026-05-04 23:00 51.31002 8.45392 14883 ft 286 kts 231°
2026-05-04 23:00 51.29754 8.42938 14569 ft 284 kts 231°
2026-05-04 23:00 51.28513 8.40493 14266 ft 282 kts 231°
2026-05-04 23:00 51.27347 8.37980 13948 ft 281 kts 238°
2026-05-04 23:01 51.26375 8.35277 13613 ft 281 kts 239°
2026-05-04 23:01 51.25403 8.32583 13252 ft 279 kts 239°
2026-05-04 23:01 51.24431 8.29903 12896 ft 278 kts 239°
2026-05-04 23:01 51.23461 8.27232 12538 ft 277 kts 239°
2026-05-04 23:02 51.22493 8.24577 12180 ft 276 kts 239°
2026-05-04 23:02 51.21528 8.21933 11801 ft 276 kts 239°
2026-05-04 23:02 51.20579 8.19331 11445 ft 274 kts 239°
2026-05-04 23:02 51.19624 8.16709 11084 ft 273 kts 239°
2026-05-04 23:03 51.18672 8.14100 10717 ft 272 kts 239°
2026-05-04 23:03 51.17723 8.11506 10369 ft 270 kts 239°
2026-05-04 23:03 51.16777 8.08923 10027 ft 268 kts 239°
2026-05-04 23:03 51.15836 8.06356 9985 ft 269 kts 239°
2026-05-04 23:04 51.14883 8.03769 9977 ft 270 kts 239°
2026-05-04 23:04 51.13934 8.01192 9987 ft 270 kts 238°
2026-05-04 23:04 51.12983 7.98611 9988 ft 270 kts 239°
2026-05-04 23:04 51.12033 7.96031 9990 ft 270 kts 239°
2026-05-04 23:05 51.11082 7.93452 9985 ft 270 kts 238°
2026-05-04 23:05 51.10131 7.90872 9981 ft 270 kts 238°
2026-05-04 23:05 51.09182 7.88297 9990 ft 270 kts 239°
2026-05-04 23:05 51.08231 7.85721 9985 ft 270 kts 239°
2026-05-04 23:06 51.07286 7.83141 9991 ft 270 kts 241°
2026-05-04 23:06 51.06632 7.80346 9894 ft 270 kts 255°
2026-05-04 23:06 51.06468 7.77380 9492 ft 271 kts 268°
2026-05-04 23:06 51.06482 7.74387 9080 ft 270 kts 267°
2026-05-04 23:07 51.06487 7.71418 8675 ft 267 kts 268°
2026-05-04 23:07 51.06488 7.68469 8258 ft 266 kts 267°
2026-05-04 23:07 51.06484 7.65541 7995 ft 263 kts 267°
2026-05-04 23:07 51.06477 7.62624 7986 ft 265 kts 267°
2026-05-04 23:08 51.06470 7.59685 7984 ft 266 kts 267°
2026-05-04 23:08 51.06465 7.56740 7984 ft 266 kts 267°
2026-05-04 23:08 51.06461 7.53799 7987 ft 266 kts 267°
2026-05-04 23:08 51.06465 7.50896 7983 ft 266 kts 268°
2026-05-04 23:09 51.06473 7.47951 7983 ft 266 kts 268°
2026-05-04 23:09 51.06482 7.45013 7976 ft 266 kts 268°
2026-05-04 23:09 51.06488 7.42072 7965 ft 265 kts 267°
2026-05-04 23:09 51.06491 7.39162 7599 ft 263 kts 267°
2026-05-04 23:10 51.06490 7.36263 7179 ft 262 kts 268°
2026-05-04 23:10 51.06491 7.33376 6775 ft 260 kts 268°
2026-05-04 23:10 51.06492 7.30504 6363 ft 259 kts 268°
2026-05-04 23:10 51.06593 7.27656 5922 ft 259 kts 276°
2026-05-04 23:11 51.06852 7.24835 5499 ft 257 kts 276°
2026-05-04 23:11 51.07104 7.22028 5087 ft 255 kts 276°
2026-05-04 23:11 51.07352 7.19250 5006 ft 254 kts 276°
2026-05-04 23:11 51.07601 7.16453 5006 ft 255 kts 276°
2026-05-04 23:12 51.07839 7.13672 5005 ft 253 kts 274°
2026-05-04 23:12 51.07823 7.10972 4950 ft 237 kts 265°
2026-05-04 23:12 51.07728 7.08387 4667 ft 232 kts 265°
2026-05-04 23:12 51.07666 7.06695 4442 ft 231 kts 265°
2026-05-04 23:13 51.07574 7.04163 4101 ft 228 kts 265°
2026-05-04 23:13 51.07486 7.01657 4004 ft 227 kts 265°
2026-05-04 23:13 51.07364 6.98322 4007 ft 228 kts 265°
2026-05-04 23:13 51.07300 6.96618 4004 ft 228 kts 265°
2026-05-04 23:14 51.07140 6.94172 3957 ft 216 kts 261°
2026-05-04 23:14 51.07019 6.91844 3790 ft 208 kts 266°
2026-05-04 23:14 51.06743 6.89636 3523 ft 204 kts 240°
2026-05-04 23:14 51.05659 6.88266 3237 ft 207 kts 197°
2026-05-04 23:15 51.04234 6.88551 3019 ft 216 kts 155°
2026-05-04 23:15 51.03015 6.90048 3006 ft 225 kts 140°
2026-05-04 23:15 51.02172 6.91803 3006 ft 222 kts 125°
2026-05-04 23:15 51.01233 6.93671 3019 ft 217 kts 139°
2026-05-04 23:16 51.00147 6.95299 2995 ft 209 kts 142°
2026-05-04 23:16 50.99110 6.96805 3009 ft 197 kts 142°
2026-05-04 23:16 50.98111 6.98257 2909 ft 193 kts 142°
2026-05-04 23:16 50.97133 6.99683 2673 ft 189 kts 142°
2026-05-04 23:17 50.96178 7.01076 2423 ft 182 kts 142°
2026-05-04 23:17 50.95277 7.02392 2189 ft 171 kts 142°
2026-05-04 23:17 50.94427 7.03630 1970 ft 161 kts 142°
2026-05-04 23:17 50.93621 7.04804 1759 ft 153 kts 142°
2026-05-04 23:18 50.92854 7.05920 1570 ft 145 kts 142°
2026-05-04 23:18 50.92137 7.06963 1371 ft 136 kts 141°
2026-05-04 23:18 50.91449 7.07963 1178 ft 133 kts 139°
2026-05-04 23:18 50.90773 7.08944 1005 ft 131 kts 138°
2026-05-04 23:19 50.90106 7.09912 830 ft 129 kts 136°
2026-05-04 23:19 50.89445 7.10872 658 ft 129 kts 136°
2026-05-04 23:19 50.88786 7.11829 478 ft 128 kts 136°
2026-05-04 23:19 50.88130 7.12784 310 ft 128 kts 135°
2026-05-04 23:20 50.87522 7.13692 240 ft 102 kts 139°
2026-05-04 23:20 50.87128 7.14267 250 ft 52 kts 137°
2026-05-04 23:20 50.86910 7.14590 261 ft 37 kts 136°
2026-05-04 23:20 50.86730 7.14827 269 ft 31 kts 139°
2026-05-04 23:21 50.86584 7.15030 276 ft 26 kts 138°
2026-05-04 23:21 50.86462 7.15193 281 ft 20 kts 148°
2026-05-04 23:21 50.86351 7.15285 285 ft 16 kts 162°
2026-05-04 23:21 50.86262 7.15324 288 ft 10 kts 167°
2026-05-04 23:22 50.86214 7.15342 292 ft 4 kts 167°
2026-05-04 23:22 50.86194 7.15350 291 ft 9 kts 167°
2026-05-04 23:22 50.86113 7.15352 290 ft 13 kts 196°
2026-05-04 23:22 50.86047 7.15233 291 ft 17 kts 255°
2026-05-04 23:23 50.86100 7.15054 287 ft 21 kts 319°
2026-05-04 23:23 50.86228 7.14878 282 ft 26 kts 318°
2026-05-04 23:23 50.86360 7.14678 274 ft 25 kts 316°
2026-05-04 23:23 50.86492 7.14487 267 ft 27 kts 321°
2026-05-04 23:24 50.86588 7.14344 262 ft 15 kts 325°
2026-05-04 23:24 50.86656 7.14249 261 ft 13 kts 316°
2026-05-04 23:24 50.86772 7.14124 255 ft 23 kts 336°
2026-05-04 23:24 50.86891 7.13970 253 ft 22 kts 316°
2026-05-04 23:25 50.87016 7.13791 243 ft 25 kts 319°
2026-05-04 23:25 50.87148 7.13601 238 ft 26 kts 317°
2026-05-04 23:25 50.87281 7.13404 233 ft 26 kts 317°
2026-05-04 23:25 50.87414 7.13210 232 ft 25 kts 317°
2026-05-04 23:26 50.87541 7.13029 232 ft 24 kts 318°
2026-05-04 23:26 50.87658 7.12857 232 ft 22 kts 316°
2026-05-04 23:26 50.87762 7.12703 232 ft 16 kts 312°
2026-05-04 23:26 50.87771 7.12576 232 ft 9 kts 287°
2026-05-04 23:27 50.87785 7.12510 232 ft 4 kts 288°
2026-05-04 23:27 50.87790 7.12486 234 ft 1 kts 288°
2026-05-04 23:27 50.87793 7.12469 234 ft 4 kts 287°
2026-05-04 23:27 50.87803 7.12421 232 ft 3 kts 287°
2026-05-04 23:28 50.87803 7.12418 232 ft 0 kts 287°